Regional Weather Roundup
Issued by NWS

Home | Current Version | Previous Version | Graphics & Text | Print | Product List | Glossary On
Versions: 1 2 3 4 5 6 7 8 9 10 11 12 13 14 15 16 17 18 19 20 21 22 23 24 25 26 27 28 29 30 31 32 33 34 35 36 37 38 39 40 41 42 43 44 45 46 47 48 49 50
000
ASUS43 KLOT 231106
RWRIL

ILLINOIS REGIONAL WEATHER ROUNDUP
NATIONAL WEATHER SERVICE CHICAGO/ROMEOVILLE IL
600 AM CDT THU OCT 23 2014

NOTE: "FAIR" INDICATES FEW OR NO CLOUDS BELOW 12,000 FEET WITH NO
SIGNIFICANT WEATHER AND/OR OBSTRUCTIONS TO VISIBILITY.

* THESE STATIONS ARE NOT UNDER NWS QUALITY CONTROL. THEY ALSO MAY NOT
  REPORT WEATHER SUCH AS PRECIPITATION OR FOG.

ILZ001-002-007-009-015-016-024-231200-
NORTHWEST ILLINOIS

CITY           SKY/WX    TMP DP  RH WIND       PRES   REMARKS
MOLINE         CLEAR     39  34  82 E5        30.16S
STERLING*      MOCLDY    34  30  86 SE5       30.19S WCI  30
SAVANNA*       MOCLDY    38  33  84 CALM      30.18F
$$

ILZ003-004-008-010-011-017-018-231200-
NORTH CENTRAL ILLINOIS

CITY           SKY/WX    TMP DP  RH WIND       PRES   REMARKS
ROCKFORD       MOCLDY    38  34  85 SE5       30.21S WCI  34
FREEPORT*      MOCLDY    35  33  94 CALM      30.21R
ROCHELLE*      PTCLDY    34  33  96 CALM      30.20S FOG
DE KALB*       CLEAR     35  34  96 SE8       30.21S FOG     WCI  28
PERU*          PTCLDY    38  34  84 SE6       30.20F WCI  34
$$

ILZ005-006-012>014-019>023-231200-
NORTHEAST ILLINOIS

CITY           SKY/WX    TMP DP  RH WIND       PRES   REMARKS
CHICAGO-OHARE  CLEAR     36  35  96 S5        30.21S WCI  32
CHICAGO-MIDWAY PTCLDY    42  38  85 S7        30.22S FOG
AURORA         CLEAR     34  31  88 CALM      30.22S FOG
LANSING*       CLEAR     37  36  96 CALM      30.24S FOG
JOLIET*        CLEAR     35  34  97 CALM      30.22F FOG
WAUKEGAN       CLEAR     36  34  92 SW3       30.21S FOG
DUPAGE AIRPORT CLEAR     36  34  92 S5        30.21S WCI  32
KANKAKEE*      CLEAR     34  33  96 CALM      30.24S FOG
WHEELING       CLEAR     37  34  89 CALM      30.23S FOG
MORRIS*        CLEAR     32  32 100 E3        30.21S FOG
ROMEOVILLE*    CLEAR     35  35 100 S6        30.22F FOG     WCI  30
NORTHERLY ISL    N/A     44  39  82 S8          N/A
$$

LMZ740>746-231200-
SOUTHERN LAKE MICHIGAN

STATION/POSITION SKY/WX   TEMP    WIND        PRES    VSBY  WAVE
                          AIR SEA DIR/SP/G                  HT/PER
                          (F)     (DEG/KT/KT) (MB)    (MI)  (FT/S)
SOUTHERN BUOY              50 54  180/ 12/ 14 1023.7F         2/ 4
WAUKEGAN HARBOR            44     220/  5/ 10   N/A
HARRISON CRIB              45     180/ 16/ 18   N/A
BURNHAM HARBOR             44     180/  6/  9   N/A
CALUMET HARBOR             42     170/  7/ 10 1022.2F
MICHIGAN CITY              41     140/ 11/ 15   N/A
$$

ILZ025>027-034>036-040-047-049-050-058-095>099-231200-
WEST-CENTRAL ILLINOIS

CITY           SKY/WX    TMP DP  RH WIND       PRES   REMARKS
QUINCY         MOCLDY    46  40  79 S6        30.17R
GALESBURG*     CLEAR     41  37  84 SE5       30.17S HAZE
MACOMB*        CLEAR     37  36  97 S8        30.19S WCI  30
JACKSONVILLE*  CLEAR     46  40  77 S7        30.19S
PITTSFIELD*    MOCLDY    44  40  85 S3        30.19R
$$

ILZ028>032-037-038-041>044-048-051>054-059>061-231200-
CENTRAL ILLINOIS

CITY           SKY/WX    TMP DP  RH WIND       PRES   REMARKS
PONTIAC        CLEAR     32  31  96 SE3       30.22S
BLOOMINGTON    PTCLDY    39  37  92 S7        30.22S WCI  34
DECATUR        PTCLDY    34  32  92 CALM      30.22S
PEORIA         PTCLDY    43  36  76 SE3       30.20S
LACON*         MOCLDY    38  34  85 SE5       30.18F WCI  34
LINCOLN*       PTCLDY    38  36  92 CALM      30.21S
SPRINGFIELD    PTCLDY    39  35  86 E5        30.21S
TAYLORVILLE    PTCLDY    37  36  93 S6        30.21S WCI  33
$$

ILZ033-039-045-046-055>057-062-063-231200-
EAST-CENTRAL ILLINOIS

CITY           SKY/WX    TMP DP  RH WIND       PRES   REMARKS
CHAMPAIGN      CLEAR     34  33  96 E6        30.23S WCI  29
DANVILLE*      CLEAR     37  37  97 CALM      30.22S FOG
RANTOUL*       CLEAR     38  36  94 CALM      30.23S
MATTOON        CLEAR     40  37  89 SE5       30.22S
PARIS*         CLEAR     37  37 100 SE3       30.25S FOG
$$

ILZ079-100>102-231200-
SOUTHWEST ILLINOIS

CITY           SKY/WX    TMP DP  RH WIND       PRES   REMARKS
ALTON          PTCLDY    37  36  95 CALM      30.21S
BELLEVILLE     CLEAR     36  36  99 CALM      30.21R FOG
CAHOKIA*       PTCLDY    37  36  96 CALM      30.21S FOG
SPARTA*        FOG       38  37  97 CALM      30.22S VSB 1/2
$$

ILZ064>066-069>071-074>076-080>082-084>086-088>090-092>094-231200-
SOUTH-CENTRAL ILLINOIS

CITY           SKY/WX    TMP DP  RH WIND       PRES   REMARKS
CARBONDALE     FOG      N/A N/A N/A CALM      30.22S VSB 1/2
CAIRO*         CLEAR     37  35  92 NW3       30.22R FOG
EFFINGHAM*     CLEAR     37  34  91 CALM      30.23S
MARION         CLEAR     37  37 100 CALM      30.23S FOG
MT. VERNON     CLEAR     34  27  75 CALM      30.23R
CENTRALIA*     CLEAR     34  33  94 CALM      30.22S FOG
SALEM*         CLEAR     43  41  93 SE5       30.22S
METROPOLIS*    CLEAR     37  37 100 CALM      30.22R FOG
$$

ILZ067-068-072-073-078-083-087-091-231200-
SOUTHEAST ILLINOIS

CITY           SKY/WX    TMP DP  RH WIND       PRES   REMARKS
LAWRENCEVILLE  CLEAR     37  37 100 E5        30.25S FOG     WCI  33
FLORA*         CLEAR     36  35  97 CALM      30.24S
FAIRFIELD*     CLEAR     39  38  97 CALM      30.22S
HARRISBURG*    FOG       34  34 100 CALM      30.24S VSB<1/4
ROBINSON*      FOG       33  33 100 CALM      30.26S VSB 1
CARMI*         FOG       34  34 100 CALM      30.23S VSB 1/4
$$

ABBREVIATIONS USED IN REMARKS
   TC - TEMPERATURE IN CELSIUS
  WCI - WIND CHILL INDEX
   HX - HEAT INDEX
  VSB - VISIBILITY
$$




USA.gov is the U.S. government's official web portal to all federal, state and local government web resources and services.